White Plains, CT

2:56 PM EDT on June 22, 2017 (GMT -0400)
Westchester County

Weather History for KHPN - April, 2012

Change the Weather History Date:

Wednesday, April 11, 2012

  Actual Average Record
Temperature  
Mean Temperature 46 °F -  
Max Temperature 53 °F 56 °F 78 °F (2017)
Min Temperature 39 °F 38 °F 27 °F (1976)
Degree Days  
Heating Degree Days 20    
Moisture  
Dew Point 31 °F    
Average Humidity 56    
Maximum Humidity 76    
Minimum Humidity 39    
Precipitation  
Precipitation 0.00 in - - ()
Sea Level Pressure  
Sea Level Pressure 29.82 in    
Wind  
Wind Speed 8 mph (NW)    
Max Wind Speed 14 mph    
Max Gust Speed -    
Visibility 10 miles    
Events      
Averages and records for this station are not official NWS values.
T = Trace of Precipitation, MM = Missing Value Source: NWS Daily Summary

Daily Weather History Graph

Daily Weather History Graph

Search for Another Location

Airport or City:

Trip Planner

Search our weather history database for the weather conditions in past years. The results will help you decide how hot, cold, wet, or windy it might be!

Date:

Astronomy

Apr. 11, 2012 Rise Set
Actual Time 6:21 AM EDT 7:30 PM EDT
Civil Twilight 5:52 AM EDT 7:59 PM EDT
Nautical Twilight 5:19 AM EDT 8:33 PM EDT
Astronomical Twilight 4:43 AM EDT 9:08 PM EDT
Moon 12:25 AM EDT (4/11) 10:04 AM EDT (4/11)
Length of Visible Light 14h 06m
Length of Day
13h 09m
Waning Gibbous, 69% of the Moon is Illuminated
Apr 11
Waning Gibbous
Apr 13
Last Quarter
Apr 21
New
Apr 29
First Quarter
May 5
Full

Hourly Weather History & Observations

Time (EDT) Temp. Windchill Dew Point Humidity Pressure Visibility Wind Dir Wind Speed Gust Speed Precip Events Conditions
12:56 AM 44.1 °F 40.8 °F 30.9 °F 60% 29.77 in 10.0 mi WNW 5.8 mph - N/A   Clear
1:56 AM 39.9 °F 35.8 °F 30.0 °F 68% 29.76 in 10.0 mi NNW 5.8 mph - N/A   Clear
2:56 AM 43.0 °F 41.3 °F 33.1 °F 68% 29.77 in 10.0 mi WNW 3.5 mph - N/A   Overcast
3:56 AM 44.1 °F 39.0 °F 32.0 °F 63% 29.77 in 10.0 mi NNW 9.2 mph - N/A   Overcast
4:56 AM 43.0 °F 38.8 °F 32.0 °F 65% 29.78 in 10.0 mi NW 6.9 mph - N/A   Overcast
5:56 AM 43.0 °F 38.8 °F 34.0 °F 71% 29.78 in 10.0 mi NW 6.9 mph - N/A   Overcast
6:56 AM 43.0 °F 37.7 °F 32.0 °F 65% 29.80 in 10.0 mi NNW 9.2 mph - N/A   Mostly Cloudy
7:56 AM 43.0 °F 37.2 °F 30.9 °F 62% 29.82 in 10.0 mi NW 10.4 mph - N/A   Mostly Cloudy
8:56 AM 41.0 °F 35.8 °F 33.8 °F 76% 29.82 in 10.0 mi North 8.1 mph - N/A   Mostly Cloudy
9:56 AM 43.0 °F 39.5 °F 35.1 °F 74% 29.85 in 10.0 mi North 5.8 mph - N/A   Overcast
10:56 AM 46.0 °F 43.1 °F 35.1 °F 66% 29.84 in 10.0 mi NNE 5.8 mph - N/A   Mostly Cloudy
11:56 AM 48.9 °F - 34.0 °F 56% 29.83 in 10.0 mi NNW 8.1 mph - N/A   Mostly Cloudy
12:56 PM 50.0 °F - 30.9 °F 48% 29.82 in 10.0 mi NNW 8.1 mph - N/A   Overcast
1:56 PM 48.9 °F - 30.0 °F 48% 29.81 in 10.0 mi NW 6.9 mph - N/A   Mostly Cloudy
2:56 PM 48.2 °F - 28.4 °F 46% 29.79 in 10.0 mi North 11.5 mph - N/A   Mostly Cloudy
3:56 PM 48.9 °F - 28.9 °F 46% 29.81 in 10.0 mi NW 8.1 mph - N/A   Mostly Cloudy
4:56 PM 52.0 °F - 28.0 °F 40% 29.81 in 10.0 mi WNW 9.2 mph - N/A   Mostly Cloudy
5:56 PM 51.1 °F - 27.0 °F 39% 29.82 in 10.0 mi WNW 11.5 mph - N/A   Mostly Cloudy
6:56 PM 50.0 °F - 26.1 °F 39% 29.83 in 10.0 mi NW 9.2 mph - N/A   Mostly Cloudy
7:56 PM 48.9 °F - 26.1 °F 41% 29.85 in 10.0 mi NW 6.9 mph - N/A   Mostly Cloudy
8:56 PM 48.9 °F - 28.0 °F 44% 29.87 in 10.0 mi NW 5.8 mph - N/A   Mostly Cloudy
9:56 PM 48.9 °F - 28.9 °F 46% 29.88 in 10.0 mi North 13.8 mph - N/A   Mostly Cloudy
10:56 PM 48.0 °F - 30.9 °F 52% 29.88 in 10.0 mi NW 11.5 mph - 0.00 in   Overcast
11:56 PM 46.9 °F - 30.9 °F 54% 29.89 in 10.0 mi NNW 12.7 mph - N/A   Overcast